Location: Dumpton Point
(51.3500°N, 1.4433°E)
Time: 05:51:43
(UTC+00:00)

Altair - Pass Details

Date: 05 October 2022
Orbit: 1501 x 1682 km, 47.2° (Epoch: 04 December)

Event Time Altitude Azimuth Distance (km) Brightness Sun altitude
Rises 11:57:20 0° 287° (WNW) 4,920 10.0 33.7°
Reaches altitude 10° 12:01:54 10° 269° (W) 3,942 9.8 33.7°
Maximum altitude 12:07:49 18° 233° (SW) 3,371 10.1 33.6°
Drops below altitude 10° 12:13:45 10° 196° (SSW) 3,930 11.1 33.4°
Sets 12:18:19 0° 179° (S) 4,899 11.2 33.3°
